Juneau, AK

4:35 AM AKST on February 24, 2017 (GMT -0900)
Juneau International

Weather History for PAJN - May, 2013

Change the Weather History Date:

Friday, May 31, 2013

  Actual Average Record
Temperature  
Mean Temperature 49 °F 52 °F  
Max Temperature 52 °F 60 °F 76 °F (1958)
Min Temperature 45 °F 45 °F 32 °F (1950)
Degree Days  
Heating Degree Days 16 13  
Month to date heating degree days 519 509  
Since 1 July heating degree days 8536 8036  
Cooling Degree Days 0 0  
Month to date cooling degree days 0 0  
Year to date cooling degree days 0 0  
Moisture  
Dew Point 48 °F    
Average Humidity 93    
Maximum Humidity 100    
Minimum Humidity 86    
Precipitation  
Precipitation 1.10 in 0.11 in 1.10 in (2013)
Month to date precipitation 5.33 3.40  
Year to date precipitation 28.37 19.60  
Sea Level Pressure  
Sea Level Pressure 30.16 in    
Wind  
Wind Speed 5 mph (NNE)    
Max Wind Speed 13 mph    
Max Gust Speed 16 mph    
Visibility 8 miles    
Events Fog , Rain    
T = Trace of Precipitation, MM = Missing Value Source: NWS Daily Summary

Daily Weather History Graph

Daily Weather History Graph

Search for Another Location

Airport or City:

Trip Planner

Search our weather history database for the weather conditions in past years. The results will help you decide how hot, cold, wet, or windy it might be!

Date:

Astronomy

May. 31, 2013 Rise Set
Actual Time 4:03 AM AKDT 9:50 PM AKDT
Civil Twilight 2:54 AM AKDT 10:59 PM AKDT
Nautical Twilight 1:28 AM AKDT 12:23 AM AKDT
Astronomical Twilight Sun does not rise Sun does not rise
Moon 1:16 AM AKDT (5/31) 12:45 PM AKDT (5/31)
Length of Visible Light 20h 04m
Length of Day
17h 46m
Waning Gibbous, 50% of the Moon is Illuminated
May 31
Waning Gibbous
Jun 8
New
Jun 16
First Quarter
Jun 23
Full
Jun 29
Last Quarter

Hourly Weather History & Observations

Time (AKDT) Temp. Windchill Dew Point Humidity Pressure Visibility Wind Dir Wind Speed Gust Speed Precip Events Conditions
12:25 AM 51.1 °F - 50.0 °F 96% 30.04 in 10.0 mi Calm Calm - 0.01 in Rain Light Rain
12:53 AM 51.1 °F - 50.0 °F 96% 30.05 in 10.0 mi Calm Calm - 0.02 in Rain Light Rain
1:53 AM 51.1 °F - 50.0 °F 96% 30.06 in 10.0 mi SE 3.5 mph - 0.01 in Rain Light Rain
2:17 AM 51.1 °F - 50.0 °F 96% 30.06 in 10.0 mi ESE 3.5 mph - 0.00 in Rain Light Rain
2:40 AM 51.1 °F - 50.0 °F 96% 30.07 in 10.0 mi Calm Calm - 0.01 in Rain Light Rain
2:53 AM 51.1 °F - 50.0 °F 96% 30.07 in 8.0 mi East 4.6 mph - 0.02 in Rain Light Rain
3:16 AM 51.1 °F - 50.0 °F 96% 30.08 in 10.0 mi ESE 4.6 mph - 0.01 in Rain Light Rain
3:39 AM 51.1 °F - 50.0 °F 96% 30.08 in 7.0 mi Calm Calm - 0.02 in Rain Light Rain
3:53 AM 51.1 °F - 48.9 °F 92% 30.08 in 8.0 mi Calm Calm - 0.02 in Fog , Rain Light Rain
4:53 AM 51.1 °F - 50.0 °F 96% 30.09 in 7.0 mi WNW 3.5 mph - 0.01 in Rain Light Rain
5:53 AM 50.0 °F - 48.0 °F 93% 30.10 in 7.0 mi NW 4.6 mph - 0.01 in   Overcast
6:53 AM 51.1 °F - 48.9 °F 92% 30.12 in 10.0 mi East 3.5 mph - N/A Fog Patches of Fog
7:53 AM 50.0 °F - 50.0 °F 100% 30.12 in 10.0 mi Calm Calm - 0.00 in Fog , Rain Light Rain
8:53 AM 50.0 °F - 48.0 °F 93% 30.14 in 10.0 mi West 3.5 mph - 0.01 in Fog , Rain Light Rain
9:53 AM 48.9 °F - 48.0 °F 97% 30.15 in 10.0 mi WNW 6.9 mph - 0.00 in Fog Patches of Fog
10:36 AM 50.0 °F - 48.0 °F 93% 30.16 in 10.0 mi WNW 6.9 mph - 0.00 in Fog , Rain Light Rain
10:53 AM 50.0 °F - 48.0 °F 93% 30.16 in 10.0 mi WNW 5.8 mph - 0.00 in Fog Patches of Fog
11:53 AM 50.0 °F - 48.0 °F 93% 30.17 in 5.0 mi WNW 6.9 mph - 0.01 in Rain Light Rain
12:53 PM 50.0 °F - 46.9 °F 89% 30.19 in 7.0 mi NW 6.9 mph - 0.04 in Rain Light Rain
12:57 PM 50.0 °F - 46.9 °F 89% 30.19 in 7.0 mi NW 6.9 mph - 0.00 in Rain Light Rain
1:53 PM 50.0 °F - 48.0 °F 93% 30.20 in 6.0 mi WNW 4.6 mph - 0.03 in Rain Light Rain
2:17 PM 50.0 °F - 48.0 °F 93% 30.21 in 6.0 mi NNW 3.5 mph - 0.02 in Rain Light Rain
2:53 PM 51.1 °F - 48.0 °F 89% 30.22 in 6.0 mi East 4.6 mph - 0.06 in Rain Light Rain
3:53 PM 50.0 °F - 48.0 °F 93% 30.23 in 6.0 mi ESE 6.9 mph - 0.07 in Rain Light Rain
4:53 PM 48.9 °F - 48.0 °F 97% 30.23 in 6.0 mi ESE 11.5 mph - 0.10 in Rain Light Rain
5:53 PM 48.9 °F - 46.9 °F 93% 30.24 in 6.0 mi ESE 8.1 mph - 0.04 in Rain Light Rain
6:53 PM 48.9 °F - 46.9 °F 93% 30.23 in 6.0 mi East 9.2 mph - 0.06 in Rain Light Rain
7:36 PM 48.9 °F - 46.9 °F 93% 30.23 in 6.0 mi East 8.1 mph - 0.04 in Rain Light Rain
7:53 PM 48.0 °F - 46.9 °F 96% 30.23 in 6.0 mi East 6.9 mph - 0.06 in Rain Light Rain
8:53 PM 48.0 °F - 44.1 °F 86% 30.23 in 4.0 mi Calm Calm - 0.06 in Rain Rain
9:53 PM 46.0 °F 43.9 °F 45.0 °F 96% 30.24 in 6.0 mi SW 4.6 mph - 0.26 in Rain Light Rain
10:29 PM 46.9 °F - 45.0 °F 93% 30.24 in 5.0 mi Calm Calm - 0.05 in Rain Rain
10:53 PM 46.0 °F 43.9 °F 45.0 °F 96% 30.24 in 6.0 mi SW 4.6 mph - 0.09 in Rain Rain
11:25 PM 46.0 °F - 45.0 °F 96% 30.24 in 6.0 mi Calm Calm - 0.05 in Rain Light Rain
11:53 PM 46.0 °F - 45.0 °F 96% 30.25 in 6.0 mi Calm Calm - 0.08 in Rain Light Rain